Weather History for Ogden Hill AFB, UT

Change the Weather History Date:

Sunday, June 9, 2013

  Actual Average Record
Temperature  
Mean Temperature 74 °F -  
Max Temperature 90 °F 72 °F 90 °F (2013)
Min Temperature 58 °F 51 °F 39 °F (2002)
Cooling Degree Days 9    
Growing Degree Days 24 (Base 50)    
Moisture  
Dew Point 39 °F    
Average Humidity 29    
Maximum Humidity 45    
Minimum Humidity 14    
Precipitation  
Precipitation 0.00 in - - ()
Sea Level Pressure  
Sea Level Pressure 29.84 in    
Wind  
Wind Speed 12 mph (ESE)    
Max Wind Speed 18 mph    
Max Gust Speed 17 mph    
Visibility 10 miles    
Events      
Averages and records for this station are not official NWS values.
T = Trace of Precipitation, MM = Missing Value Source: NWS Daily Summary

Daily Weather History Graph

Daily Weather History Graph

Search for Another Location

Airport:

Trip Planner

Search our weather history database for the weather conditions in past years. The results will help you decide how hot, cold, wet, or windy it might be!

Date:

Astronomy

Jun. 09, 2013 Rise Set
Actual Time 5:55 AM MDT 8:59 PM MDT
Civil Twilight 5:21 AM MDT 9:33 PM MDT
Nautical Twilight 4:39 AM MDT 10:15 PM MDT
Astronomical Twilight 3:48 AM MDT 11:06 PM MDT
Moon 6:55 AM MDT (6/9) 9:48 PM MDT (6/9)
Length of Visible Light 16h 11m
Length of Day
15h 04m
New Moon, 1% of the Moon is Illuminated
Jun 9
New Moon
Jun 16
First Quarter
Jun 23
Full
Jun 29
Last Quarter
Jul 8
New

Hourly Weather History & Observations

Time (MDT) Temp. Dew Point Humidity Pressure Visibility Wind Dir Wind Speed Gust Speed Precip Events Conditions
12:58 AM 65.7 °F 38.1 °F 36% 29.90 in 10.0 mi ESE 12.7 mph - N/A   Clear
1:58 AM 64.2 °F 37.4 °F 37% 29.90 in 10.0 mi ESE 15.0 mph - N/A   Clear
2:58 AM 63.0 °F 37.8 °F 39% 29.90 in 10.0 mi ESE 13.8 mph - N/A   Clear
3:58 AM 60.8 °F 38.1 °F 43% 29.90 in 10.0 mi ESE 16.1 mph - N/A   Clear
4:58 AM 60.1 °F 37.2 °F 43% 29.90 in 10.0 mi ESE 16.1 mph - N/A   Clear
5:58 AM 58.5 °F 37.4 °F 45% 29.90 in 10.0 mi ESE 18.4 mph - N/A   Clear
6:58 AM 58.8 °F 37.6 °F 45% 29.90 in 10.0 mi ESE 18.4 mph - N/A   Clear
7:58 AM 61.5 °F 38.5 °F 43% 29.91 in 10.0 mi ESE 16.1 mph - N/A   Clear
8:58 AM 65.5 °F 39.6 °F 39% 29.91 in 10.0 mi ESE 15.0 mph - N/A   Clear
9:58 AM 71.8 °F 41.0 °F 33% 29.92 in 10.0 mi ESE 12.7 mph - N/A   Clear
10:58 AM 75.4 °F 44.2 °F 33% 29.90 in 10.0 mi East 6.9 mph - N/A   Clear
11:58 AM 80.6 °F 44.4 °F 28% 29.90 in 10.0 mi Variable 1.2 mph - N/A   Clear
12:58 PM 82.8 °F 40.1 °F 22% 29.88 in 10.0 mi Variable 4.6 mph - N/A   Clear
1:58 PM 84.7 °F 33.8 °F 16% 29.87 in 10.0 mi South 6.9 mph - N/A   Clear
2:58 PM 86.0 °F 35.8 °F 17% 29.85 in 10.0 mi SW 6.9 mph - N/A   Clear
3:58 PM 88.7 °F 33.8 °F 14% 29.82 in 10.0 mi West 5.8 mph - N/A   Clear
4:58 PM 90.0 °F 34.9 °F 14% 29.79 in 10.0 mi Variable 4.6 mph - N/A   Clear
5:58 PM 89.1 °F 39.2 °F 17% 29.77 in 10.0 mi ENE 3.5 mph - N/A   Clear
6:58 PM 88.3 °F 41.7 °F 20% 29.75 in 10.0 mi ESE 8.1 mph - N/A   Clear
7:58 PM 86.4 °F 35.8 °F 17% 29.73 in 8.0 mi East 2.3 mph - N/A   Clear
8:58 PM 79.7 °F 41.4 °F 26% 29.71 in 10.0 mi ESE 10.4 mph - N/A   Clear
9:58 PM 79.2 °F 39.2 °F 24% 29.71 in 10.0 mi ESE 13.8 mph - N/A   Clear
10:58 PM 78.1 °F 38.8 °F 24% 29.74 in 10.0 mi SW 8.1 mph 17.3 mph N/A   Partly Cloudy
11:58 PM 80.4 °F 39.9 °F 24% 29.74 in 10.0 mi Variable 4.6 mph - N/A   Scattered Clouds